Regional Weather Roundup
Issued by NWS

Home | Current Version | Previous Version | Graphics & Text | Print | Product List | Glossary On
Versions: 1 2 3 4 5 6 7 8 9 10 11 12 13 14 15 16 17 18 19 20 21 22 23 24 25 26 27 28 29 30 31 32 33 34 35 36 37 38 39 40 41 42 43 44 45 46 47 48 49 50
000
ASUS45 KBOU 200807
RWRCO

WEATHER ROUNDUP FOR COLORADO
NATIONAL WEATHER SERVICE DENVER/BOULDER CO
200 AM MDT SUN AUG 20 2017

NOTE: "FAIR" INDICATES FEW OR NO CLOUDS BELOW 12000 FEET WITH NO
SIGNIFICANT WEATHER AND/OR OBSTRUCTIONS TO VISIBILITY.

COZ001>005-013-030-031-200900-
...NORTHWEST COLORADO...

CITY           SKY/WX    TMP DP  RH WIND       PRES   REMARKS
CRAIG          FAIR      56  39  53 NE3       30.18F
HAYDEN         FAIR      61  34  36 E8        30.22S
MEEKER         FAIR      54  39  57 SE6       30.22S
RABBIT EARS PA FAIR      54  32  43 W7        30.50F
STEAMBOAT SPGS FAIR      55  37  50 E6        30.24S
WALDEN         FAIR      50  34  53 SE7       30.33S
$$

COZ006>008-011-200900-
...WEST CENTRAL VALLEYS...

CITY           SKY/WX    TMP DP  RH WIND       PRES   REMARKS
GRAND JUNCTION FAIR      67  36  31 NE3       30.07S
MONTROSE       FAIR      63  39  41 SE10      30.16S
EAGLE          FAIR      56  34  43 CALM      30.26S
RIFLE          FAIR      58  39  49 SE3       30.15S
DELTA          FAIR      66  39  37 E6        30.12S
NUCLA          FAIR      61  32  33 E6        30.19S
$$

COZ017>023-064>068-200900-
...SOUTHWEST COLORADO...

CITY           SKY/WX    TMP DP  RH WIND       PRES   REMARKS
DURANGO        FAIR      56  35  45 NE7       30.22S
CORTEZ         FAIR      59  39  47 VRB5      30.14R
PAGOSA SPRINGS FAIR      57  32  39 NE5       30.32S
TELLURIDE      FAIR      54  32  42 SE6       30.41F
WOLF CREEK PAS NOT AVBL
$$

COZ009-010-012-014-032>034-037-058>063-200900-
...CENTRAL COLORADO...

CITY           SKY/WX    TMP DP  RH WIND       PRES   REMARKS
ASPEN          FAIR      54  35  48 SW9       30.31F
BUENA VISTA    FAIR      56  33  41 NW7       30.33S
COPPER MTN     FAIR      54  27  35 W3        30.62F
BERTHOUD PASS  FAIR      43  37  81 NW12G17   30.64F
COTTONWOOD PAS FAIR      63  25  23 SW12      30.46F
GUNNISON       FAIR      48  39  71 CALM      30.34R
KREMMLING      FAIR      54  36  50 E5        30.31S
LEADVILLE      FAIR      44  29  55 CALM      30.46F
MONARCH PASS   FAIR      52  23  32 CALM      30.73S
SALIDA         FAIR      56  36  46 W7        30.37S
SUNLIGHT       FAIR      54  27  35 W3        30.55F
WILKERSON PASS FAIR      52  27  37 W3        30.59F
$$

COZ069>075-200900-
...SAN LUIS VALLEY/SANGRE DE CRISTO MOUNTAINS...

CITY           SKY/WX    TMP DP  RH WIND       PRES   REMARKS
ALAMOSA        FAIR      51  43  74 E5        30.28F
DEL NORTE      FAIR      54  34  46 W10       30.32S
LA VETA PASS   NOT AVBL
SAGUACHE       FAIR      55  34  44 N9        30.31S
$$

COZ035-036-038>040-200900-
...NORTHERN COLORADO FRONT RANGE...

CITY           SKY/WX    TMP DP  RH WIND       PRES   REMARKS
DENVER INTL AP FAIR      62  41  46 S10       30.07F
DMNS CITY PARK   N/A     67  40  37 SE6G15    30.06F
AURORA         PTCLDY    63  42  46 S9        30.09F
FRONT RANGE AP FAIR      64  41  42 SW15      30.09F
ERIE MUNI ARPT FAIR      62  39  42 CALM      30.09F
BOULDER MUN AP FAIR      75  32  20 W7        30.05F
CENTENNIAL     FAIR      61  42  49 SW3       30.11F
BROOMFIELD     NOT AVBL
FORT COLLINS   FAIR      66  44  45 SE7       30.05S
LONGMONT       FAIR      66  44  43 E3        30.06S
$$

COZ041-046-047-076>085-087-088-200900-
...PIKES PEAK/PALMER DIVIDE AND SOUTHERN FOOTHILLS...

CITY           SKY/WX    TMP DP  RH WIND       PRES   REMARKS
COLO. SPRINGS  FAIR      62  45  53 N10       30.14F
A. F. ACADEMY  FAIR      54  44  67 N9        30.17F
SCHRIEVER AFB  FAIR      65  41  40 NW9       30.14F
CHEYENNE MTN   FAIR      73  34  24 W8        30.14F
ELLICOTT       NOT AVBL
FALCON         FAIR      60  42  53 W9        30.20F
FORT CARSON    FAIR      63  45  52 NW12      30.10F
LIMON          FAIR      53  50  89 N5        30.07F
MONUMENT HILL  FAIR      55  41  58 SW10      30.22F
CANON CITY     CLEAR     72  45  37 W10       30.09S
WALSENBURG     FAIR      73  39  29 CALM      30.13S
TRINIDAD       FAIR      68  45  43 W17       30.10F
$$

COZ042>045-048>051-090-091-200900-
...NORTHEAST COLORADO...

CITY           SKY/WX    TMP DP  RH WIND       PRES   REMARKS
GREELEY ARPT   FAIR      57  49  74 N6        30.03S
AKRON          FAIR      71  42  35 SW10      30.00F
BURLINGTON     FAIR      67  54  63 S15       29.97F
WRAY           NOT AVBL
YUMA           FAIR      64  37  36 W7        29.95F
STERLING       FAIR      57  54  88 SW5       29.96F
HOLYOKE        FAIR      68  55  64 NW5       29.92F
FORT MORGAN    FAIR      66  40  38 W7        30.00F
$$

COZ086-089-092>099-200900-
...SOUTHEAST COLORADO...

CITY           SKY/WX    TMP DP  RH WIND       PRES   REMARKS
PUEBLO         FAIR      64  48  56 SW3       30.02F
LA JUNTA       FAIR      65  52  62 CALM      29.99F
LAMAR          FAIR      59  53  80 NW3       29.97S
SPRINGFIELD      N/A     61  57  87 S7        30.03F
$$



USA.gov is the U.S. government's official web portal to all federal, state and local government web resources and services.